Weather History for KHSP - September, 2013

Change the Weather History Date:

Friday, September 13, 2013

  Actual Average Record
Temperature  
Mean Temperature 55 °F -  
Max Temperature 62 °F 67 °F 86 °F (1998)
Min Temperature 48 °F 53 °F 46 °F (2014)
Degree Days  
Heating Degree Days 10    
Growing Degree Days 5 (Base 50)    
Moisture  
Dew Point 50 °F    
Average Humidity 81    
Maximum Humidity 100    
Minimum Humidity 48    
Precipitation  
Precipitation 0.07 in - - ()
Sea Level Pressure  
Sea Level Pressure 29.98 in    
Wind  
Wind Speed 11 mph (WNW)    
Max Wind Speed 16 mph    
Max Gust Speed 30 mph    
Visibility 7 miles    
Events Fog , Rain    
Averages and records for this station are not official NWS values.
T = Trace of Precipitation, MM = Missing Value Source: NWS Daily Summary

Daily Weather History Graph

Daily Weather History Graph

Search for Another Location

Airport or City:

Trip Planner

Search our weather history database for the weather conditions in past years. The results will help you decide how hot, cold, wet, or windy it might be!

Date:

Astronomy

Sep. 13, 2013 Rise Set
Actual Time 6:59 AM EDT 7:30 PM EDT
Civil Twilight 6:33 AM EDT 7:56 PM EDT
Nautical Twilight 6:02 AM EDT 8:27 PM EDT
Astronomical Twilight 5:30 AM EDT 8:59 PM EDT
Moon 3:14 PM EDT (9/13) 12:31 AM EDT (9/13)
Length of Visible Light 13h 23m
Length of Day
12h 30m
First Quarter, 61% of the Moon is Illuminated
Sep 13
First Quarter
Sep 19
Full
Sep 26
Last Quarter
Oct 4
New
Oct 11
First Quarter

Hourly Weather History & Observations

Time (EDT) Temp. Dew Point Humidity Pressure Visibility Wind Dir Wind Speed Gust Speed Precip Events Conditions
12:15 AM 59.0 °F 59.0 °F 100% 29.98 in 10.0 mi West 11.5 mph - N/A   Scattered Clouds
12:35 AM 59.0 °F 57.2 °F 94% 29.98 in 10.0 mi West 9.2 mph - N/A   Scattered Clouds
12:55 AM 59.0 °F 59.0 °F 100% 29.98 in 10.0 mi West 10.4 mph - N/A   Mostly Cloudy
1:15 AM 59.0 °F 59.0 °F 100% 29.97 in 7.0 mi West 12.7 mph - N/A   Overcast
1:35 AM 57.2 °F 57.2 °F 100% 29.96 in 7.0 mi West 11.5 mph - N/A   Mostly Cloudy
1:55 AM 57.2 °F 57.2 °F 100% 29.95 in 4.0 mi West 13.8 mph - N/A   Mostly Cloudy
2:15 AM 57.2 °F 57.2 °F 100% 29.95 in 4.0 mi West 16.1 mph 19.6 mph N/A   Mostly Cloudy
2:35 AM 57.2 °F 57.2 °F 100% 29.95 in 2.5 mi West 16.1 mph - N/A   Overcast
2:55 AM 57.2 °F 57.2 °F 100% 29.94 in 4.0 mi West 13.8 mph 20.7 mph N/A   Mostly Cloudy
3:15 AM 57.2 °F 57.2 °F 100% 29.94 in 2.5 mi West 15.0 mph 19.6 mph N/A   Mostly Cloudy
3:35 AM 57.2 °F 57.2 °F 100% 29.93 in 2.5 mi West 13.8 mph - N/A   Overcast
3:55 AM 57.2 °F 57.2 °F 100% 29.93 in 2.0 mi West 15.0 mph 19.6 mph N/A   Overcast
4:15 AM 57.2 °F 57.2 °F 100% 29.92 in 0.2 mi West 16.1 mph - N/A Fog Fog
4:35 AM 57.2 °F 57.2 °F 100% 29.92 in 0.2 mi West 16.1 mph 21.9 mph N/A   Drizzle
4:55 AM 57.2 °F 57.2 °F 100% 29.92 in 0.2 mi West 13.8 mph - N/A   Drizzle
5:15 AM 57.2 °F 57.2 °F 100% 29.92 in 0.2 mi West 15.0 mph 19.6 mph N/A   Drizzle
5:35 AM 57.2 °F 57.2 °F 100% 29.92 in 0.2 mi West 15.0 mph 24.2 mph 0.02 in Rain Rain
5:55 AM 57.2 °F 57.2 °F 100% 29.92 in 0.2 mi WNW 13.8 mph 18.4 mph 0.03 in Rain Rain
6:15 AM 57.2 °F 57.2 °F 100% 29.92 in 0.5 mi WNW 12.7 mph 25.3 mph 0.04 in Rain Rain
6:35 AM 57.2 °F 57.2 °F 100% 29.93 in 0.2 mi West 11.5 mph 19.6 mph 0.04 in   Drizzle
6:55 AM 57.2 °F 57.2 °F 100% 29.94 in 0.2 mi West 12.7 mph 19.6 mph N/A   Drizzle
7:15 AM 57.2 °F 57.2 °F 100% 29.94 in 0.2 mi West 10.4 mph 18.4 mph N/A   Drizzle
7:35 AM 55.4 °F 55.4 °F 100% 29.95 in 0.2 mi West 11.5 mph 18.4 mph N/A   Drizzle
7:55 AM 55.4 °F 55.4 °F 100% 29.95 in 0.2 mi West 11.5 mph 16.1 mph N/A   Drizzle
8:15 AM 55.4 °F 55.4 °F 100% 29.95 in 7.0 mi WNW 6.9 mph - N/A   Scattered Clouds
8:35 AM 55.4 °F 55.4 °F 100% 29.95 in 4.0 mi West 4.6 mph - N/A   Mostly Cloudy
8:55 AM 55.4 °F 55.4 °F 100% 29.96 in 5.0 mi WNW 4.6 mph - N/A   Mostly Cloudy
9:15 AM 55.4 °F 55.4 °F 100% 29.96 in 7.0 mi West 8.1 mph - N/A   Overcast
9:35 AM 57.2 °F 55.4 °F 94% 29.96 in 10.0 mi WNW 12.7 mph 16.1 mph N/A   Mostly Cloudy
9:55 AM 57.2 °F 53.6 °F 88% 29.97 in 10.0 mi WNW 6.9 mph 16.1 mph N/A   Mostly Cloudy
10:15 AM 57.2 °F 53.6 °F 88% 29.97 in 10.0 mi NW 11.5 mph 19.6 mph N/A   Mostly Cloudy
10:35 AM 59.0 °F 51.8 °F 77% 29.97 in 10.0 mi WNW 15.0 mph 25.3 mph N/A   Scattered Clouds
10:55 AM 57.2 °F 48.2 °F 72% 29.98 in 10.0 mi NW 11.5 mph 21.9 mph N/A   Mostly Cloudy
11:15 AM 59.0 °F 50.0 °F 72% 29.98 in 10.0 mi WNW 10.4 mph 20.7 mph N/A   Mostly Cloudy
11:35 AM 57.2 °F 46.4 °F 67% 29.98 in 10.0 mi NW 13.8 mph 20.7 mph N/A   Mostly Cloudy
11:55 AM 59.0 °F 48.2 °F 67% 29.98 in 10.0 mi NW 9.2 mph 20.7 mph N/A   Scattered Clouds
12:15 PM 60.8 °F 48.2 °F 63% 29.99 in 10.0 mi NW 6.9 mph 18.4 mph N/A   Mostly Cloudy
12:35 PM 60.8 °F 44.6 °F 55% 29.99 in 10.0 mi WNW 13.8 mph 19.6 mph N/A   Mostly Cloudy
12:55 PM 59.0 °F 46.4 °F 63% 29.99 in 10.0 mi WNW 6.9 mph 19.6 mph N/A   Scattered Clouds
1:15 PM 62.6 °F 48.2 °F 59% 29.99 in 10.0 mi NW 11.5 mph 16.1 mph N/A   Scattered Clouds
1:35 PM 60.8 °F 46.4 °F 59% 29.99 in 10.0 mi WNW 10.4 mph 16.1 mph N/A   Scattered Clouds
1:55 PM 60.8 °F 46.4 °F 59% 29.99 in 10.0 mi North 10.4 mph 19.6 mph N/A   Mostly Cloudy
2:15 PM 59.0 °F 44.6 °F 59% 29.98 in 10.0 mi NW 11.5 mph - N/A   Mostly Cloudy
2:35 PM 62.6 °F 46.4 °F 55% 29.98 in 10.0 mi NNW 8.1 mph 16.1 mph N/A   Mostly Cloudy
2:55 PM 62.6 °F 46.4 °F 55% 29.98 in 10.0 mi WNW 9.2 mph - N/A   Mostly Cloudy
3:15 PM 62.6 °F 46.4 °F 55% 29.98 in 10.0 mi West 10.4 mph 16.1 mph N/A   Mostly Cloudy
3:35 PM 62.6 °F 42.8 °F 48% 29.97 in 10.0 mi WNW 11.5 mph 29.9 mph N/A   Scattered Clouds
3:55 PM 62.6 °F 44.6 °F 52% 29.97 in 10.0 mi West 11.5 mph 23.0 mph N/A   Scattered Clouds
4:15 PM 62.6 °F 44.6 °F 52% 29.98 in 10.0 mi North 6.9 mph - N/A   Mostly Cloudy
4:35 PM 59.0 °F 44.6 °F 59% 29.98 in 10.0 mi NW 8.1 mph - N/A   Overcast
4:55 PM 60.8 °F 44.6 °F 55% 29.98 in 10.0 mi NNW 9.2 mph - N/A   Mostly Cloudy
5:15 PM 62.6 °F 44.6 °F 52% 29.98 in 10.0 mi NW 8.1 mph - N/A   Mostly Cloudy
5:35 PM 60.8 °F 42.8 °F 52% 29.98 in 10.0 mi West 11.5 mph 16.1 mph N/A   Scattered Clouds
5:55 PM 60.8 °F 44.6 °F 55% 29.99 in 10.0 mi NW 5.8 mph - N/A   Scattered Clouds
6:15 PM 57.2 °F 42.8 °F 59% 30.00 in 10.0 mi NW 8.1 mph - N/A   Mostly Cloudy
6:35 PM 57.2 °F 44.6 °F 63% 30.00 in 10.0 mi WNW 8.1 mph - N/A   Mostly Cloudy
6:55 PM 57.2 °F 44.6 °F 63% 30.01 in 10.0 mi NW 9.2 mph 18.4 mph N/A   Mostly Cloudy
7:15 PM 55.4 °F 44.6 °F 67% 30.01 in 10.0 mi NW 10.4 mph 18.4 mph N/A   Mostly Cloudy
7:35 PM 53.6 °F 44.6 °F 72% 30.02 in 10.0 mi NW 10.4 mph 19.6 mph N/A   Scattered Clouds
7:55 PM 51.8 °F 44.6 °F 76% 30.02 in 10.0 mi NW 9.2 mph - N/A   Clear
8:15 PM 51.8 °F 42.8 °F 71% 30.03 in 10.0 mi NW 12.7 mph 16.1 mph N/A   Clear
8:35 PM 51.8 °F 42.8 °F 71% 30.04 in 10.0 mi NW 11.5 mph 19.6 mph N/A   Clear
8:55 PM 51.8 °F 44.6 °F 76% 30.05 in 10.0 mi NW 8.1 mph - N/A   Clear
9:15 PM 50.0 °F 44.6 °F 82% 30.06 in 10.0 mi NW 9.2 mph - N/A   Clear
9:35 PM 48.2 °F 44.6 °F 87% 30.06 in 10.0 mi WNW 11.5 mph - N/A   Clear
9:55 PM 48.2 °F 44.6 °F 87% 30.06 in 10.0 mi WNW 11.5 mph - N/A   Clear
10:15 PM 48.2 °F 44.6 °F 87% 30.06 in 10.0 mi WNW 11.5 mph - N/A   Clear
10:35 PM 48.2 °F 44.6 °F 87% 30.06 in 10.0 mi WNW 10.4 mph - N/A   Clear
10:55 PM 48.2 °F 44.6 °F 87% 30.06 in 10.0 mi WNW 12.7 mph - N/A   Clear
11:15 PM 48.2 °F 44.6 °F 87% 30.06 in 10.0 mi WNW 9.2 mph - N/A   Clear
11:35 PM 48.2 °F 44.6 °F 87% 30.06 in 10.0 mi WNW 10.4 mph - N/A   Clear
11:55 PM 48.2 °F 44.6 °F 87% 30.06 in 10.0 mi WNW 10.4 mph - N/A   Clear